Time,TemperatureF,DewpointF,PressureIn,WindDirection,WindDirectionDegrees,WindSpeedMPH,WindSpeedGustMPH,Humidity,HourlyPrecipIn,Conditions,Clouds,dailyrainin,SoftwareType,DateUTC
2013-10-24 00:01:00,72.1,59.2,29.99,NNE,20,4.0,9.0,64,0.00,RA,,0.00,WeatherDisplay:10.37,2013-10-24 04:01:00,
2013-10-24 00:03:00,72.0,59.2,29.99,North,354,4.1,6.9,64,0.00,CLR,,0.00,WeatherDisplay:10.37,2013-10-24 04:03:00,
2013-10-24 00:08:00,72.0,59.2,29.98,NNW,343,8.8,12.7,64,0.00,CLR,,0.00,WeatherDisplay:10.37,2013-10-24 04:08:00,
2013-10-24 00:13:00,72.2,58.0,29.99,NNE,32,5.8,11.5,61,0.00,CLR,,0.00,WeatherDisplay:10.37,2013-10-24 04:13:00,
2013-10-24 00:18:00,72.2,58.5,29.99,NNW,338,5.6,6.9,62,0.00,CLR,,0.00,WeatherDisplay:10.37,2013-10-24 04:18:00,
2013-10-24 00:23:00,72.1,58.8,29.99,NNE,31,5.8,11.5,63,0.00,CLR,,0.00,WeatherDisplay:10.37,2013-10-24 04:23:00,
2013-10-24 00:28:00,71.9,58.2,29.98,NW,319,8.3,9.2,62,0.00,CLR,,0.00,WeatherDisplay:10.37,2013-10-24 04:28:00,
2013-10-24 00:33:00,71.8,56.2,29.99,NNE,20,5.7,11.5,58,0.00,CLR,,0.00,WeatherDisplay:10.37,2013-10-24 04:33:00,
2013-10-24 00:38:00,71.8,55.3,29.98,NNE,33,7.6,11.5,56,0.00,CLR,,0.00,WeatherDisplay:10.37,2013-10-24 04:38:00,
2013-10-24 00:43:00,71.8,55.3,29.98,NE,56,8.1,10.0,56,0.00,CLR,,0.00,WeatherDisplay:10.37,2013-10-24 04:43:00,
2013-10-24 00:48:00,71.9,54.3,29.99,NNE,14,8.4,15.0,54,0.00,CLR,,0.00,WeatherDisplay:10.37,2013-10-24 04:48:00,
2013-10-24 00:53:00,71.8,54.3,29.99,NE,37,5.7,9.2,54,0.00,CLR,,0.00,WeatherDisplay:10.37,2013-10-24 04:53:00,
2013-10-24 00:58:00,71.7,55.2,29.99,NNE,20,7.5,11.5,56,0.00,CLR,,0.00,WeatherDisplay:10.37,2013-10-24 04:58:00,
2013-10-24 01:03:00,71.6,55.6,29.98,NE,37,6.2,9.2,57,0.00,CLR,,0.00,WeatherDisplay:10.37,2013-10-24 05:03:00,
2013-10-24 01:08:00,71.4,55.9,29.98,NE,53,5.7,8.1,58,0.00,CLR,,0.00,WeatherDisplay:10.37,2013-10-24 05:08:00,
2013-10-24 01:13:00,71.3,55.3,29.99,North,11,5.6,9.2,57,0.00,CLR,,0.00,WeatherDisplay:10.37,2013-10-24 05:13:00,
2013-10-24 01:18:00,71.2,54.7,29.99,NE,44,5.4,8.1,56,0.00,CLR,,0.00,WeatherDisplay:10.37,2013-10-24 05:18:00,
2013-10-24 01:23:00,71.2,55.2,29.98,NNW,335,5.5,10.4,57,0.00,CLR,,0.00,WeatherDisplay:10.37,2013-10-24 05:23:00,
2013-10-24 01:28:00,71.1,55.6,29.99,NE,39,5.6,6.9,58,0.00,CLR,,0.00,WeatherDisplay:10.37,2013-10-24 05:28:00,
2013-10-24 01:33:00,71.1,56.0,29.99,NNE,33,4.6,6.9,59,0.00,CLR,,0.00,WeatherDisplay:10.37,2013-10-24 05:33:00,
2013-10-24 01:38:00,71.0,55.9,29.99,NNE,18,5.6,9.2,59,0.00,CLR,,0.00,WeatherDisplay:10.37,2013-10-24 05:38:00,
2013-10-24 01:43:00,71.1,55.6,29.99,NNE,19,7.3,9.2,58,0.00,CLR,,0.00,WeatherDisplay:10.37,2013-10-24 05:43:00,
2013-10-24 01:48:00,71.0,55.5,29.99,NW,315,6.8,11.5,58,0.00,CLR,,0.00,WeatherDisplay:10.37,2013-10-24 05:48:00,
2013-10-24 01:53:00,70.9,55.4,29.99,North,352,9.8,13.8,58,0.00,CLR,,0.00,WeatherDisplay:10.37,2013-10-24 05:53:00,
2013-10-24 01:58:00,70.8,54.8,29.99,NNE,18,6.9,11.5,57,0.00,CLR,,0.00,WeatherDisplay:10.37,2013-10-24 05:58:00,
2013-10-24 02:03:00,70.7,54.2,29.99,NNW,347,7.4,11.5,56,0.00,CLR,,0.00,WeatherDisplay:10.37,2013-10-24 06:03:00,
2013-10-24 02:08:00,70.6,54.1,30.00,NE,43,8.1,12.7,56,0.00,CLR,,0.00,WeatherDisplay:10.37,2013-10-24 06:08:00,
2013-10-24 02:13:00,70.6,53.6,29.99,North,358,7.1,9.2,55,0.00,CLR,,0.00,WeatherDisplay:10.37,2013-10-24 06:13:00,
2013-10-24 02:18:00,70.3,53.4,29.99,NNW,338,6.1,8.0,55,0.00,CLR,,0.00,WeatherDisplay:10.37,2013-10-24 06:18:00,
2013-10-24 02:23:00,70.3,52.9,29.99,NNW,342,9.2,15.0,54,0.00,CLR,,0.00,WeatherDisplay:10.37,2013-10-24 06:23:00,
2013-10-24 02:28:00,70.3,52.9,29.99,NW,326,7.6,11.5,54,0.00,CLR,,0.00,WeatherDisplay:10.37,2013-10-24 06:28:00,
2013-10-24 02:33:00,70.1,52.7,29.99,NNW,348,4.8,9.2,54,0.00,CLR,,0.00,WeatherDisplay:10.37,2013-10-24 06:33:00,
2013-10-24 02:38:00,69.9,53.0,30.00,NNE,14,8.4,12.7,55,0.00,CLR,,0.00,WeatherDisplay:10.37,2013-10-24 06:38:00,
2013-10-24 02:43:00,69.7,52.3,30.00,NNE,31,7.8,12.7,54,0.00,CLR,,0.00,WeatherDisplay:10.37,2013-10-24 06:43:00,
2013-10-24 02:48:00,69.6,51.7,30.00,NE,53,8.6,12.0,53,0.00,CLR,,0.00,WeatherDisplay:10.37,2013-10-24 06:48:00,
2013-10-24 02:53:00,69.5,52.1,29.99,NE,44,3.6,5.8,54,0.00,CLR,,0.00,WeatherDisplay:10.37,2013-10-24 06:53:00,
2013-10-24 02:58:00,69.3,50.9,29.99,NE,46,6.6,11.0,52,0.00,CLR,,0.00,WeatherDisplay:10.37,2013-10-24 06:58:00,
2013-10-24 03:03:00,69.3,50.4,30.00,NNE,16,4.7,7.0,51,0.00,CLR,,0.00,WeatherDisplay:10.37,2013-10-24 07:03:00,
2013-10-24 03:08:00,69.2,50.3,30.00,NE,43,5.3,11.5,51,0.00,CLR,,0.00,WeatherDisplay:10.37,2013-10-24 07:08:00,
2013-10-24 03:13:00,68.9,50.0,30.00,East,79,3.3,11.5,51,0.00,CLR,,0.00,WeatherDisplay:10.37,2013-10-24 07:13:00,
2013-10-24 03:18:00,68.8,50.5,30.00,NE,40,5.1,9.2,52,0.00,CLR,,0.00,WeatherDisplay:10.37,2013-10-24 07:18:00,
2013-10-24 03:23:00,68.6,50.3,30.00,NNE,20,7.2,11.5,52,0.00,CLR,,0.00,WeatherDisplay:10.37,2013-10-24 07:23:00,
2013-10-24 03:28:00,68.5,50.7,30.00,NNE,13,6.7,11.5,53,0.00,CLR,,0.00,WeatherDisplay:10.37,2013-10-24 07:28:00,
2013-10-24 03:33:00,68.4,50.1,29.99,NNE,26,6.5,9.2,52,0.00,CLR,,0.00,WeatherDisplay:10.37,2013-10-24 07:33:00,
2013-10-24 03:38:00,68.3,50.5,29.99,NE,49,4.9,8.0,53,0.00,CLR,,0.00,WeatherDisplay:10.37,2013-10-24 07:38:00,
2013-10-24 03:43:00,68.2,50.4,29.99,NNE,23,4.3,10.4,53,0.00,CLR,,0.00,WeatherDisplay:10.37,2013-10-24 07:43:00,
2013-10-24 03:48:00,68.0,50.7,30.00,NE,36,8.1,11.5,54,0.00,CLR,,0.00,WeatherDisplay:10.37,2013-10-24 07:48:00,
2013-10-24 03:53:00,67.7,50.5,29.99,NE,41,6.2,10.0,54,0.00,CLR,,0.00,WeatherDisplay:10.37,2013-10-24 07:53:00,
2013-10-24 03:58:00,67.7,49.9,29.99,NNE,29,7.6,13.8,53,0.00,CLR,,0.00,WeatherDisplay:10.37,2013-10-24 07:58:00,
2013-10-24 04:03:00,67.5,49.8,29.99,NNE,32,5.0,9.2,53,0.00,CLR,,0.00,WeatherDisplay:10.37,2013-10-24 08:03:00,
2013-10-24 04:08:00,67.4,49.7,29.99,NE,47,5.8,9.0,53,0.00,CLR,,0.00,WeatherDisplay:10.37,2013-10-24 08:08:00,
2013-10-24 04:13:00,67.3,50.1,29.99,NNE,20,5.0,11.5,54,0.00,CLR,,0.00,WeatherDisplay:10.37,2013-10-24 08:13:00,
2013-10-24 04:18:00,67.2,50.0,30.00,NE,34,5.0,8.1,54,0.00,CLR,,0.00,WeatherDisplay:10.37,2013-10-24 08:18:00,
2013-10-24 04:23:00,67.0,49.8,30.00,ENE,58,6.9,13.0,54,0.00,CLR,,0.00,WeatherDisplay:10.37,2013-10-24 08:23:00,
2013-10-24 04:28:00,66.9,49.7,30.00,NNE,20,5.4,8.1,54,0.00,CLR,,0.00,WeatherDisplay:10.37,2013-10-24 08:28:00,
2013-10-24 04:33:00,66.8,49.1,30.00,NE,39,6.5,11.5,53,0.00,CLR,,0.00,WeatherDisplay:10.37,2013-10-24 08:33:00,
2013-10-24 04:38:00,66.7,49.0,30.00,North,353,5.4,10.4,53,0.00,CLR,,0.00,WeatherDisplay:10.37,2013-10-24 08:38:00,
2013-10-24 04:43:00,66.6,48.9,30.00,NE,37,3.0,5.8,53,0.00,CLR,,0.00,WeatherDisplay:10.37,2013-10-24 08:43:00,
2013-10-24 04:48:00,66.5,48.8,30.00,NE,44,3.9,8.0,53,0.00,CLR,,0.00,WeatherDisplay:10.37,2013-10-24 08:48:00,
2013-10-24 04:53:00,66.5,48.3,30.01,NW,319,1.9,6.9,52,0.00,CLR,,0.00,WeatherDisplay:10.37,2013-10-24 08:53:00,
2013-10-24 04:58:00,66.4,48.2,30.00,NE,37,5.5,10.4,52,0.00,CLR,,0.00,WeatherDisplay:10.37,2013-10-24 08:58:00,
2013-10-24 05:03:00,66.2,48.0,30.00,NNW,340,5.1,9.2,52,0.00,CLR,,0.00,WeatherDisplay:10.37,2013-10-24 09:03:00,
2013-10-24 05:08:00,66.1,47.4,30.01,NE,45,4.8,10.4,51,0.00,CLR,,0.00,WeatherDisplay:10.37,2013-10-24 09:08:00,
2013-10-24 05:13:00,66.2,46.5,30.01,NNW,342,7.0,12.7,49,0.00,CLR,,0.00,WeatherDisplay:10.37,2013-10-24 09:13:00,
2013-10-24 05:18:00,66.1,46.9,30.01,NNE,23,4.0,7.0,50,0.00,CLR,,0.00,WeatherDisplay:10.37,2013-10-24 09:18:00,
2013-10-24 05:23:00,66.0,46.8,30.02,NE,37,3.6,4.6,50,0.00,CLR,,0.00,WeatherDisplay:10.37,2013-10-24 09:23:00,
2013-10-24 05:28:00,65.8,46.6,30.02,NNE,30,5.0,7.0,50,0.00,CLR,,0.00,WeatherDisplay:10.37,2013-10-24 09:28:00,
2013-10-24 05:33:00,65.7,47.1,30.02,NNE,15,3.5,9.2,51,0.00,CLR,,0.00,WeatherDisplay:10.37,2013-10-24 09:33:00,
2013-10-24 05:38:00,65.6,46.5,30.02,NE,56,8.1,11.5,50,0.00,CLR,,0.00,WeatherDisplay:10.37,2013-10-24 09:38:00,
2013-10-24 05:43:00,65.6,45.9,30.02,NE,34,5.9,11.5,49,0.00,CLR,,0.00,WeatherDisplay:10.37,2013-10-24 09:43:00,
2013-10-24 05:48:00,65.6,46.5,30.02,NNE,18,4.6,8.1,50,0.00,CLR,,0.00,WeatherDisplay:10.37,2013-10-24 09:48:00,
2013-10-24 05:53:00,65.5,46.4,30.02,NE,37,6.8,10.4,50,0.00,CLR,,0.00,WeatherDisplay:10.37,2013-10-24 09:53:00,
2013-10-24 05:58:00,65.4,46.3,30.02,NNE,25,5.2,8.1,50,0.00,CLR,,0.00,WeatherDisplay:10.37,2013-10-24 09:58:00,
2013-10-24 06:03:00,65.2,46.6,30.02,NE,49,3.6,9.2,51,0.00,CLR,,0.00,WeatherDisplay:10.37,2013-10-24 10:03:00,
2013-10-24 06:08:00,65.1,47.0,30.02,North,349,5.6,12.7,52,0.00,CLR,,0.00,WeatherDisplay:10.37,2013-10-24 10:08:00,
2013-10-24 06:13:00,65.0,46.9,30.03,NNE,27,6.2,10.4,52,0.00,CLR,,0.00,WeatherDisplay:10.37,2013-10-24 10:13:00,
2013-10-24 06:18:00,64.8,46.2,30.02,NE,44,5.9,10.4,51,0.00,CLR,,0.00,WeatherDisplay:10.37,2013-10-24 10:18:00,
2013-10-24 06:23:00,64.6,46.6,30.03,NNW,345,5.2,9.2,52,0.00,CLR,,0.00,WeatherDisplay:10.37,2013-10-24 10:23:00,
2013-10-24 06:28:00,64.4,46.4,30.03,NNE,33,6.4,8.0,52,0.00,CLR,,0.00,WeatherDisplay:10.37,2013-10-24 10:28:00,
2013-10-24 08:54:00,63.2,48.2,30.07,NE,34,4.3,16.1,58,0.00,CLR,,0.00,WeatherDisplay:10.37,2013-10-24 12:54:00,
2013-10-24 08:59:00,63.2,47.2,30.08,NNE,25,6.9,11.5,56,0.00,CLR,,0.00,WeatherDisplay:10.37,2013-10-24 12:59:00,
2013-10-24 09:04:00,63.2,47.7,30.08,NNE,18,4.5,8.1,57,0.00,CLR,,0.00,WeatherDisplay:10.37,2013-10-24 13:04:00,
2013-10-24 09:09:00,63.3,46.9,30.08,NNE,24,5.4,10.4,55,0.00,CLR,,0.00,WeatherDisplay:10.37,2013-10-24 13:09:00,
2013-10-24 09:14:00,63.4,46.5,30.08,NNE,24,6.2,11.5,54,0.00,CLR,,0.00,WeatherDisplay:10.37,2013-10-24 13:14:00,
2013-10-24 09:19:00,63.5,46.6,30.09,NE,43,5.1,8.1,54,0.00,CLR,,0.00,WeatherDisplay:10.37,2013-10-24 13:19:00,
2013-10-24 09:24:00,63.6,46.6,30.09,NE,40,4.8,4.8,54,0.00,CLR,,0.00,WeatherDisplay:10.37,2013-10-24 13:24:00,
2013-10-24 09:29:00,63.7,46.7,30.09,NNE,30,3.8,9.2,54,0.00,CLR,,0.00,WeatherDisplay:10.37,2013-10-24 13:29:00,
2013-10-24 09:34:00,63.8,46.8,30.09,North,350,6.3,6.9,54,0.00,CLR,,0.00,WeatherDisplay:10.37,2013-10-24 13:34:00,
2013-10-24 09:39:00,63.9,46.4,30.10,North,4,7.0,7.0,53,0.00,CLR,,0.00,WeatherDisplay:10.37,2013-10-24 13:39:00,
2013-10-24 09:44:00,64.0,46.0,30.10,NE,49,5.8,11.5,52,0.00,CLR,,0.00,WeatherDisplay:10.37,2013-10-24 13:44:00,
2013-10-24 09:49:00,64.2,46.7,30.10,North,356,5.6,8.1,53,0.00,CLR,,0.00,WeatherDisplay:10.37,2013-10-24 13:49:00,
2013-10-24 09:54:00,64.3,45.8,30.10,NNE,27,8.4,15.0,51,0.00,CLR,,0.00,WeatherDisplay:10.37,2013-10-24 13:54:00,
2013-10-24 09:59:00,64.3,46.3,30.10,NNE,33,5.1,11.5,52,0.00,CLR,,0.00,WeatherDisplay:10.37,2013-10-24 13:59:00,
2013-10-24 10:04:00,64.3,45.8,30.10,NNE,30,6.7,10.0,51,0.00,CLR,,0.00,WeatherDisplay:10.37,2013-10-24 14:04:00,
2013-10-24 10:09:00,64.4,45.9,30.11,NE,37,6.2,8.1,51,0.00,CLR,,0.00,WeatherDisplay:10.37,2013-10-24 14:09:00,
2013-10-24 10:14:00,64.6,46.6,30.12,North,11,2.6,4.6,52,0.00,CLR,,0.00,WeatherDisplay:10.37,2013-10-24 14:14:00,
2013-10-24 10:19:00,64.8,46.8,30.12,NE,51,4.1,8.1,52,0.00,CLR,,0.00,WeatherDisplay:10.37,2013-10-24 14:19:00,
2013-10-24 10:24:00,64.9,46.8,30.12,North,357,4.4,8.1,52,0.00,CLR,,0.00,WeatherDisplay:10.37,2013-10-24 14:24:00,
2013-10-24 10:29:00,65.1,47.0,30.11,NE,43,5.7,11.5,52,0.00,CLR,,0.00,WeatherDisplay:10.37,2013-10-24 14:29:00,
2013-10-24 10:34:00,65.5,47.9,30.11,NE,41,2.4,3.5,53,0.00,CLR,,0.00,WeatherDisplay:10.37,2013-10-24 14:34:00,
2013-10-24 10:39:00,65.9,47.3,30.12,North,350,3.7,5.8,51,0.00,CLR,,0.00,WeatherDisplay:10.37,2013-10-24 14:39:00,
2013-10-24 10:44:00,66.2,47.5,30.12,NNE,21,3.5,5.8,51,0.00,CLR,,0.00,WeatherDisplay:10.37,2013-10-24 14:44:00,
2013-10-24 10:49:00,66.6,48.4,30.12,NE,53,4.7,7.0,52,0.00,CLR,,0.00,WeatherDisplay:10.37,2013-10-24 14:49:00,
2013-10-24 10:54:00,66.9,48.7,30.12,NE,34,2.9,4.6,52,0.00,CLR,,0.00,WeatherDisplay:10.37,2013-10-24 14:54:00,
2013-10-24 10:59:00,67.1,47.8,30.12,NNE,26,4.6,8.1,50,0.00,CLR,,0.00,WeatherDisplay:10.37,2013-10-24 14:59:00,
2013-10-24 11:04:00,67.3,48.0,30.12,NNW,340,4.5,9.2,50,0.00,CLR,,0.00,WeatherDisplay:10.37,2013-10-24 15:04:00,
2013-10-24 11:09:00,67.8,48.5,30.12,NE,53,3.6,5.8,50,0.00,CLR,,0.00,WeatherDisplay:10.37,2013-10-24 15:09:00,
2013-10-24 11:14:00,68.0,47.6,30.12,North,6,6.4,9.2,48,0.00,CLR,,0.00,WeatherDisplay:10.37,2013-10-24 15:14:00,
2013-10-24 11:19:00,68.2,47.8,30.12,NNW,347,5.5,8.1,48,0.00,CLR,,0.00,WeatherDisplay:10.37,2013-10-24 15:19:00,
2013-10-24 11:24:00,68.6,48.7,30.13,North,354,5.1,8.1,49,0.00,CLR,,0.00,WeatherDisplay:10.37,2013-10-24 15:24:00,
2013-10-24 11:29:00,69.0,48.5,30.13,NE,41,5.0,6.9,48,0.00,CLR,,0.00,WeatherDisplay:10.37,2013-10-24 15:29:00,
2013-10-24 11:34:00,69.5,49.5,30.12,NNE,33,5.3,8.1,49,0.00,CLR,,0.00,WeatherDisplay:10.37,2013-10-24 15:34:00,
2013-10-24 11:39:00,69.5,48.9,30.12,NNE,31,4.9,6.9,48,0.00,CLR,,0.00,WeatherDisplay:10.37,2013-10-24 15:39:00,
2013-10-24 11:44:00,69.7,49.7,30.13,NNE,30,4.1,5.8,49,0.00,CLR,,0.00,WeatherDisplay:10.37,2013-10-24 15:44:00,
2013-10-24 11:49:00,69.5,49.5,30.13,North,358,5.2,9.2,49,0.00,CLR,,0.00,WeatherDisplay:10.37,2013-10-24 15:49:00,
2013-10-24 11:54:00,69.4,49.9,30.12,NNE,22,2.7,3.5,50,0.00,CLR,,0.00,WeatherDisplay:10.37,2013-10-24 15:54:00,
2013-10-24 11:59:00,69.6,50.1,30.13,NNE,30,5.1,8.1,50,0.00,CLR,,0.00,WeatherDisplay:10.37,2013-10-24 15:59:00,
2013-10-24 12:04:00,69.7,50.8,30.12,NNE,22,3.4,4.0,51,0.00,CLR,,0.00,WeatherDisplay:10.37,2013-10-24 16:04:00,
2013-10-24 12:09:00,69.8,50.9,30.12,NNE,32,5.9,11.5,51,0.00,CLR,,0.00,WeatherDisplay:10.37,2013-10-24 16:09:00,
2013-10-24 12:14:00,69.8,50.9,30.12,NNE,20,5.0,8.1,51,0.00,CLR,,0.00,WeatherDisplay:10.37,2013-10-24 16:14:00,
2013-10-24 12:19:00,70.0,51.0,30.12,NNE,19,6.4,9.2,51,0.00,CLR,,0.00,WeatherDisplay:10.37,2013-10-24 16:19:00,
2013-10-24 12:24:00,70.1,51.1,30.12,NE,50,6.7,11.5,51,0.00,CLR,,0.00,WeatherDisplay:10.37,2013-10-24 16:24:00,
2013-10-24 12:29:00,69.9,51.5,30.12,East,101,5.8,10.4,52,0.00,CLR,,0.00,WeatherDisplay:10.37,2013-10-24 16:29:00,
2013-10-24 12:34:00,70.2,52.3,30.12,North,352,3.4,9.0,53,0.00,CLR,,0.00,WeatherDisplay:10.37,2013-10-24 16:34:00,
2013-10-24 12:39:00,70.1,51.7,30.12,NNE,24,5.6,8.1,52,0.00,CLR,,0.00,WeatherDisplay:10.37,2013-10-24 16:39:00,
2013-10-24 12:44:00,69.8,51.9,30.12,NNE,16,5.5,8.1,53,0.00,CLR,,0.00,WeatherDisplay:10.37,2013-10-24 16:44:00,
2013-10-24 12:49:00,69.7,52.3,30.11,NNE,30,3.8,7.0,54,0.00,CLR,,0.00,WeatherDisplay:10.37,2013-10-24 16:49:00,
2013-10-24 12:54:00,69.5,52.1,30.12,NE,46,5.8,9.2,54,0.00,CLR,,0.00,WeatherDisplay:10.37,2013-10-24 16:54:00,
2013-10-24 12:59:00,69.4,52.5,30.12,NE,47,3.9,5.8,55,0.00,CLR,,0.00,WeatherDisplay:10.37,2013-10-24 16:59:00,
2013-10-24 13:04:00,69.6,52.7,30.12,North,353,4.8,9.2,55,0.00,CLR,,0.00,WeatherDisplay:10.37,2013-10-24 17:04:00,
2013-10-24 13:09:00,69.6,52.7,30.11,NNE,18,6.1,10.4,55,0.00,CLR,,0.00,WeatherDisplay:10.37,2013-10-24 17:09:00,
2013-10-24 13:14:00,69.5,52.6,30.11,NE,50,4.1,6.9,55,0.00,CLR,,0.00,WeatherDisplay:10.37,2013-10-24 17:14:00,
2013-10-24 13:19:00,69.6,53.7,30.11,NNE,22,2.5,4.0,57,0.00,CLR,,0.00,WeatherDisplay:10.37,2013-10-24 17:19:00,
2013-10-24 13:24:00,69.8,53.4,30.11,NNE,31,4.9,6.9,56,0.00,CLR,,0.00,WeatherDisplay:10.37,2013-10-24 17:24:00,
2013-10-24 13:29:00,69.8,53.9,30.10,NE,46,5.1,9.2,57,0.00,CLR,,0.00,WeatherDisplay:10.37,2013-10-24 17:29:00,
2013-10-24 13:34:00,70.0,54.1,30.10,NNE,22,5.9,9.2,57,0.00,CLR,,0.00,WeatherDisplay:10.37,2013-10-24 17:34:00,
2013-10-24 13:39:00,69.7,53.8,30.10,NNW,343,6.1,9.2,57,0.00,CLR,,0.00,WeatherDisplay:10.37,2013-10-24 17:39:00,
2013-10-24 13:44:00,69.9,54.4,30.10,NNE,23,3.5,8.1,58,0.00,CLR,,0.00,WeatherDisplay:10.37,2013-10-24 17:44:00,
2013-10-24 13:49:00,70.3,55.3,30.10,NNE,18,3.7,4.6,59,0.00,CLR,,0.00,WeatherDisplay:10.37,2013-10-24 17:49:00,
2013-10-24 13:54:00,70.5,55.0,30.10,NNE,27,4.9,6.0,58,0.00,CLR,,0.00,WeatherDisplay:10.37,2013-10-24 17:54:00,
2013-10-24 13:59:00,70.7,55.7,30.09,ENE,67,3.8,4.6,59,0.00,CLR,,0.00,WeatherDisplay:10.37,2013-10-24 17:59:00,
2013-10-24 14:04:00,71.2,56.1,30.10,NNE,23,5.8,8.1,59,0.00,CLR,,0.00,WeatherDisplay:10.37,2013-10-24 18:04:00,
2013-10-24 14:10:00,71.3,55.8,30.09,NNW,345,5.0,9.2,58,0.00,CLR,,0.00,WeatherDisplay:10.37,2013-10-24 18:10:00,
2013-10-24 14:15:00,71.6,56.5,30.09,NNE,18,3.5,5.8,59,0.00,CLR,,0.00,WeatherDisplay:10.37,2013-10-24 18:15:00,
2013-10-24 14:20:00,71.6,56.0,30.09,ESE,102,5.0,10.4,58,0.00,CLR,,0.00,WeatherDisplay:10.37,2013-10-24 18:20:00,
2013-10-24 14:25:00,71.7,57.1,30.09,NE,50,3.6,5.8,60,0.00,CLR,,0.00,WeatherDisplay:10.37,2013-10-24 18:25:00,
2013-10-24 14:30:00,72.2,57.1,30.08,ENE,78,3.5,5.8,59,0.00,CLR,,0.00,WeatherDisplay:10.37,2013-10-24 18:30:00,
2013-10-24 14:35:00,72.4,56.8,30.08,North,349,5.5,9.2,58,0.00,CLR,,0.00,WeatherDisplay:10.37,2013-10-24 18:35:00,
2013-10-24 14:40:00,72.2,56.6,30.09,NE,34,3.9,6.9,58,0.00,CLR,,0.00,WeatherDisplay:10.37,2013-10-24 18:40:00,
2013-10-24 14:45:00,72.0,56.9,30.08,NNW,340,5.6,10.4,59,0.00,CLR,,0.00,WeatherDisplay:10.37,2013-10-24 18:45:00,
2013-10-24 14:50:00,72.4,57.3,30.08,NNE,22,3.8,5.8,59,0.00,CLR,,0.00,WeatherDisplay:10.37,2013-10-24 18:50:00,
2013-10-24 14:55:00,72.5,57.4,30.08,NNE,33,5.4,9.2,59,0.00,CLR,,0.00,WeatherDisplay:10.37,2013-10-24 18:55:00,
2013-10-24 15:00:00,72.4,57.7,30.08,NNW,333,5.8,10.4,60,0.00,CLR,,0.00,WeatherDisplay:10.37,2013-10-24 19:00:00,
2013-10-24 15:05:00,72.1,57.0,30.08,NE,39,2.8,6.0,59,0.00,CLR,,0.00,WeatherDisplay:10.37,2013-10-24 19:05:00,
2013-10-24 15:10:00,72.0,57.4,30.08,North,358,4.0,6.9,60,0.00,CLR,,0.00,WeatherDisplay:10.37,2013-10-24 19:10:00,
2013-10-24 15:15:00,72.3,57.2,30.08,NE,37,5.9,8.1,59,0.00,CLR,,0.00,WeatherDisplay:10.37,2013-10-24 19:15:00,
2013-10-24 15:20:00,72.3,57.6,30.08,NNE,25,4.9,8.1,60,0.00,CLR,,0.00,WeatherDisplay:10.37,2013-10-24 19:20:00,
2013-10-24 15:25:00,72.4,57.3,30.08,NNW,335,6.2,9.2,59,0.00,CLR,,0.00,WeatherDisplay:10.37,2013-10-24 19:25:00,
2013-10-24 15:30:00,72.1,57.0,30.08,NNE,25,6.5,9.2,59,0.00,CLR,,0.00,WeatherDisplay:10.37,2013-10-24 19:30:00,
2013-10-24 15:35:00,72.1,56.5,30.08,NE,41,6.5,9.2,58,0.00,CLR,,0.00,WeatherDisplay:10.37,2013-10-24 19:35:00,
2013-10-24 15:40:00,72.1,57.4,30.08,NE,39,3.2,11.5,60,0.00,CLR,,0.00,WeatherDisplay:10.37,2013-10-24 19:40:00,
2013-10-24 15:45:00,72.5,57.8,30.08,NNE,19,3.0,4.6,60,0.00,CLR,,0.00,WeatherDisplay:10.37,2013-10-24 19:45:00,
2013-10-24 15:50:00,72.1,56.5,30.08,North,360,7.1,10.4,58,0.00,CLR,,0.00,WeatherDisplay:10.37,2013-10-24 19:50:00,
2013-10-24 15:55:00,72.0,57.4,30.08,NE,41,4.5,8.1,60,0.00,CLR,,0.00,WeatherDisplay:10.37,2013-10-24 19:55:00,
2013-10-24 16:00:00,72.3,57.2,30.07,NNE,31,4.6,10.4,59,0.00,CLR,,0.00,WeatherDisplay:10.37,2013-10-24 20:00:00,
2013-10-24 16:05:00,72.4,57.3,30.07,NNE,31,5.1,9.0,59,0.00,CLR,,0.00,WeatherDisplay:10.37,2013-10-24 20:05:00,
2013-10-24 16:10:00,72.1,57.0,30.07,NNW,337,6.1,9.2,59,0.00,CLR,,0.00,WeatherDisplay:10.37,2013-10-24 20:10:00,
2013-10-24 16:15:00,72.0,56.9,30.07,NNE,30,6.6,10.0,59,0.00,CLR,,0.00,WeatherDisplay:10.37,2013-10-24 20:15:00,
2013-10-24 16:20:00,71.9,56.8,30.07,NNE,18,5.0,11.5,59,0.00,CLR,,0.00,WeatherDisplay:10.37,2013-10-24 20:20:00,
2013-10-24 16:25:00,71.6,57.0,30.07,NE,51,5.5,11.0,60,0.00,CLR,,0.00,WeatherDisplay:10.37,2013-10-24 20:25:00,
2013-10-24 16:30:00,71.4,56.8,30.07,NE,34,5.4,10.4,60,0.00,CLR,,0.00,WeatherDisplay:10.37,2013-10-24 20:30:00,
2013-10-24 16:35:00,71.4,56.8,30.07,NNW,340,5.8,8.1,60,0.00,CLR,,0.00,WeatherDisplay:10.37,2013-10-24 20:35:00,
2013-10-24 16:40:00,71.2,56.6,30.07,NE,47,5.0,8.1,60,0.00,CLR,,0.00,WeatherDisplay:10.37,2013-10-24 20:40:00,
2013-10-24 16:45:00,71.2,56.6,30.07,NNE,29,4.2,6.9,60,0.00,CLR,,0.00,WeatherDisplay:10.37,2013-10-24 20:45:00,
2013-10-24 16:50:00,71.1,57.0,30.06,NE,53,4.7,7.0,61,0.00,CLR,,0.00,WeatherDisplay:10.37,2013-10-24 20:50:00,
2013-10-24 16:55:00,71.1,57.0,30.06,NNE,19,4.8,9.2,61,0.00,CLR,,0.00,WeatherDisplay:10.37,2013-10-24 20:55:00,
2013-10-24 17:00:00,71.4,57.2,30.06,NNE,19,3.8,6.0,61,0.00,CLR,,0.00,WeatherDisplay:10.37,2013-10-24 21:00:00,
2013-10-24 17:05:00,71.2,57.1,30.07,NNE,22,4.4,6.0,61,0.00,CLR,,0.00,WeatherDisplay:10.37,2013-10-24 21:05:00,
2013-10-24 17:10:00,71.1,57.0,30.07,NE,51,0.7,4.6,61,0.00,CLR,,0.00,WeatherDisplay:10.37,2013-10-24 21:10:00,
2013-10-24 17:15:00,71.2,56.1,30.07,NE,46,3.5,8.1,59,0.00,CLR,,0.00,WeatherDisplay:10.37,2013-10-24 21:15:00,
2013-10-24 17:20:00,71.5,56.4,30.07,ENE,71,3.3,8.1,59,0.00,CLR,,0.00,WeatherDisplay:10.37,2013-10-24 21:20:00,
2013-10-24 17:25:00,71.3,55.3,30.07,NNE,31,7.9,11.5,57,0.00,CLR,,0.00,WeatherDisplay:10.37,2013-10-24 21:25:00,
2013-10-24 17:30:00,70.9,55.4,30.07,ENE,68,4.3,8.1,58,0.00,CLR,,0.00,WeatherDisplay:10.37,2013-10-24 21:30:00,
2013-10-24 17:35:00,70.8,55.3,30.07,ENE,72,3.8,5.8,58,0.00,CLR,,0.00,WeatherDisplay:10.37,2013-10-24 21:35:00,
2013-10-24 17:40:00,70.6,55.6,30.07,SE,134,0.0,2.3,59,0.00,CLR,,0.00,WeatherDisplay:10.37,2013-10-24 21:40:00,
2013-10-24 17:45:00,70.5,54.5,30.07,NE,46,3.0,7.0,57,0.00,CLR,,0.00,WeatherDisplay:10.37,2013-10-24 21:45:00,
2013-10-24 17:50:00,70.2,54.7,30.07,East,79,2.6,3.5,58,0.00,CLR,,0.00,WeatherDisplay:10.37,2013-10-24 21:50:00,
2013-10-24 17:55:00,70.0,55.0,30.07,NNE,33,1.6,7.0,59,0.00,CLR,,0.00,WeatherDisplay:10.37,2013-10-24 21:55:00,
2013-10-24 18:00:00,69.9,54.9,30.07,NE,46,3.1,9.0,59,0.00,CLR,,0.00,WeatherDisplay:10.37,2013-10-24 22:00:00,
2013-10-24 18:05:00,69.8,54.8,30.07,NNE,29,4.9,6.0,59,0.00,CLR,,0.00,WeatherDisplay:10.37,2013-10-24 22:05:00,
2013-10-24 18:10:00,69.7,55.2,30.07,NNW,346,1.5,4.6,60,0.00,CLR,,0.00,WeatherDisplay:10.37,2013-10-24 22:10:00,
2013-10-24 18:15:00,69.6,55.6,30.07,NNE,18,2.1,3.5,61,0.00,CLR,,0.00,WeatherDisplay:10.37,2013-10-24 22:15:00,
2013-10-24 18:20:00,69.4,55.8,30.07,NNE,33,4.4,6.0,62,0.00,CLR,,0.00,WeatherDisplay:10.37,2013-10-24 22:20:00,
2013-10-24 18:25:00,69.1,56.0,30.07,NE,54,2.2,4.6,63,0.00,CLR,,0.00,WeatherDisplay:10.37,2013-10-24 22:25:00,
2013-10-24 18:30:00,68.9,55.8,30.08,NE,51,0.5,3.5,63,0.00,CLR,,0.00,WeatherDisplay:10.37,2013-10-24 22:30:00,
2013-10-24 18:35:00,68.6,55.5,30.08,ENE,60,0.0,2.3,63,0.00,CLR,,0.00,WeatherDisplay:10.37,2013-10-24 22:35:00,
2013-10-24 18:40:00,68.5,55.8,30.08,NE,37,0.7,2.3,64,0.00,CLR,,0.00,WeatherDisplay:10.37,2013-10-24 22:40:00,
2013-10-24 18:45:00,68.2,55.6,30.08,ENE,58,1.5,3.5,64,0.00,CLR,,0.00,WeatherDisplay:10.37,2013-10-24 22:45:00,
2013-10-24 18:50:00,68.0,55.4,30.08,NNE,29,0.0,1.2,64,0.00,CLR,,0.00,WeatherDisplay:10.37,2013-10-24 22:50:00,
2013-10-24 18:55:00,67.8,55.2,30.09,NNE,32,1.4,3.0,64,0.00,CLR,,0.00,WeatherDisplay:10.37,2013-10-24 22:55:00,
2013-10-24 19:00:00,67.6,55.4,30.08,NNE,31,0.0,2.3,65,0.00,CLR,,0.00,WeatherDisplay:10.37,2013-10-24 23:00:00,
2013-10-24 19:05:00,67.3,55.5,30.09,NNE,32,0.7,1.2,66,0.00,CLR,,0.00,WeatherDisplay:10.37,2013-10-24 23:05:00,
2013-10-24 19:11:00,67.1,55.4,30.09,NE,40,0.0,0.0,66,0.00,CLR,,0.00,WeatherDisplay:10.37,2013-10-24 23:11:00,
2013-10-24 19:16:00,66.8,55.5,30.09,NE,46,1.2,5.0,67,0.00,CLR,,0.00,WeatherDisplay:10.37,2013-10-24 23:16:00,
2013-10-24 19:21:00,66.7,55.4,30.08,NE,43,1.3,3.5,67,0.00,CLR,,0.00,WeatherDisplay:10.37,2013-10-24 23:21:00,
2013-10-24 19:26:00,66.6,55.3,30.08,NE,56,0.5,2.3,67,0.00,CLR,,0.00,WeatherDisplay:10.37,2013-10-24 23:26:00,
2013-10-24 19:31:00,66.4,55.5,30.09,NNE,30,1.1,2.3,68,0.00,CLR,,0.00,WeatherDisplay:10.37,2013-10-24 23:31:00,
2013-10-24 19:36:00,66.4,55.5,30.09,NE,43,0.2,2.3,68,0.00,CLR,,0.00,WeatherDisplay:10.37,2013-10-24 23:36:00,
2013-10-24 19:41:00,66.3,55.8,30.09,NE,50,1.7,3.5,69,0.00,CLR,,0.00,WeatherDisplay:10.37,2013-10-24 23:41:00,
2013-10-24 19:46:00,66.4,55.9,30.09,NE,34,1.0,2.3,69,0.00,CLR,,0.00,WeatherDisplay:10.37,2013-10-24 23:46:00,
2013-10-24 19:51:00,66.4,55.9,30.09,NNE,24,2.7,5.8,69,0.00,CLR,,0.00,WeatherDisplay:10.37,2013-10-24 23:51:00,
2013-10-24 19:56:00,66.4,55.9,30.09,NNE,33,4.0,6.9,69,0.00,CLR,,0.00,WeatherDisplay:10.37,2013-10-24 23:56:00,
2013-10-24 20:01:00,66.4,55.9,30.09,NE,40,0.8,2.3,69,0.00,CLR,,0.00,WeatherDisplay:10.37,2013-10-25 00:01:00,
2013-10-24 20:06:00,66.2,56.1,30.10,NE,37,0.1,1.2,70,0.00,CLR,,0.00,WeatherDisplay:10.37,2013-10-25 00:06:00,
2013-10-24 20:11:00,66.0,56.3,30.10,NNE,27,2.0,4.0,71,0.00,CLR,,0.00,WeatherDisplay:10.37,2013-10-25 00:11:00,
2013-10-24 20:16:00,65.9,56.2,30.10,NE,41,0.7,4.0,71,0.00,CLR,,0.00,WeatherDisplay:10.37,2013-10-25 00:16:00,
2013-10-24 20:21:00,65.8,56.1,30.10,NE,53,0.1,3.5,71,0.00,CLR,,0.00,WeatherDisplay:10.37,2013-10-25 00:21:00,
2013-10-24 20:26:00,65.6,56.3,30.10,NNE,27,0.1,1.2,72,0.00,CLR,,0.00,WeatherDisplay:10.37,2013-10-25 00:26:00,
2013-10-24 20:31:00,65.4,56.5,30.10,SE,136,3.7,4.6,73,0.00,CLR,,0.00,WeatherDisplay:10.37,2013-10-25 00:31:00,
2013-10-24 20:36:00,65.3,56.4,30.10,NNE,32,0.0,0.0,73,0.00,CLR,,0.00,WeatherDisplay:10.37,2013-10-25 00:36:00,
2013-10-24 20:41:00,65.1,56.6,30.10,NNE,18,0.0,0.0,74,0.00,CLR,,0.00,WeatherDisplay:10.37,2013-10-25 00:41:00,
2013-10-24 20:46:00,65.0,56.5,30.10,NE,47,2.5,3.5,74,0.00,CLR,,0.00,WeatherDisplay:10.37,2013-10-25 00:46:00,
2013-10-24 20:51:00,65.0,56.5,30.10,NE,44,1.9,3.5,74,0.00,CLR,,0.00,WeatherDisplay:10.37,2013-10-25 00:51:00,
2013-10-24 20:56:00,65.1,56.6,30.11,NNE,15,1.0,3.5,74,0.00,CLR,,0.00,WeatherDisplay:10.37,2013-10-25 00:56:00,
2013-10-24 21:01:00,65.1,56.6,30.11,NNE,32,1.7,3.5,74,0.00,CLR,,0.00,WeatherDisplay:10.37,2013-10-25 01:01:00,
2013-10-24 21:06:00,65.2,56.7,30.11,NE,41,2.5,5.0,74,0.00,CLR,,0.00,WeatherDisplay:10.37,2013-10-25 01:06:00,
2013-10-24 21:11:00,65.3,56.8,30.11,NE,41,2.9,4.6,74,0.00,CLR,,0.00,WeatherDisplay:10.37,2013-10-25 01:11:00,
2013-10-24 21:16:00,65.3,56.8,30.11,North,8,2.4,3.5,74,0.00,CLR,,0.00,WeatherDisplay:10.37,2013-10-25 01:16:00,
2013-10-24 21:21:00,65.3,56.4,30.11,ENE,58,3.4,6.0,73,0.00,CLR,,0.00,WeatherDisplay:10.37,2013-10-25 01:21:00,
2013-10-24 21:26:00,65.4,56.1,30.11,NE,40,0.7,1.2,72,0.00,CLR,,0.00,WeatherDisplay:10.37,2013-10-25 01:26:00,
2013-10-24 21:31:00,65.3,56.0,30.11,NNE,33,1.3,3.5,72,0.00,CLR,,0.00,WeatherDisplay:10.37,2013-10-25 01:31:00,
2013-10-24 21:36:00,65.4,56.1,30.11,NNE,32,2.1,3.5,72,0.00,CLR,,0.00,WeatherDisplay:10.37,2013-10-25 01:36:00,
2013-10-24 21:41:00,65.3,56.0,30.12,NNE,32,1.6,3.5,72,0.00,CLR,,0.00,WeatherDisplay:10.37,2013-10-25 01:41:00,
2013-10-24 21:46:00,65.2,55.9,30.12,NE,37,1.2,3.5,72,0.00,CLR,,0.00,WeatherDisplay:10.37,2013-10-25 01:46:00,
2013-10-24 21:51:00,65.2,55.9,30.12,NE,43,1.9,3.5,72,0.00,CLR,,0.00,WeatherDisplay:10.37,2013-10-25 01:51:00,
2013-10-24 21:56:00,65.1,56.2,30.12,NNW,343,3.6,5.8,73,0.00,CLR,,0.00,WeatherDisplay:10.37,2013-10-25 01:56:00,
2013-10-24 22:01:00,65.0,56.5,30.12,NNE,33,2.8,4.6,74,0.00,CLR,,0.00,WeatherDisplay:10.37,2013-10-25 02:01:00,
2013-10-24 22:06:00,64.9,56.8,30.12,NE,37,2.9,5.8,75,0.00,CLR,,0.00,WeatherDisplay:10.37,2013-10-25 02:06:00,
2013-10-24 22:11:00,64.6,56.9,30.12,NE,37,1.2,3.5,76,0.00,CLR,,0.00,WeatherDisplay:10.37,2013-10-25 02:11:00,
2013-10-24 22:16:00,64.4,56.7,30.12,NW,313,1.2,2.3,76,0.00,CLR,,0.00,WeatherDisplay:10.37,2013-10-25 02:16:00,
2013-10-24 22:21:00,64.2,56.8,30.12,NNE,32,2.8,3.5,77,0.00,CLR,,0.00,WeatherDisplay:10.37,2013-10-25 02:21:00,
2013-10-24 22:26:00,64.1,56.7,30.13,NNE,13,0.9,2.3,77,0.00,CLR,,0.00,WeatherDisplay:10.37,2013-10-25 02:26:00,
2013-10-24 22:31:00,64.0,56.6,30.13,NNE,18,1.3,2.3,77,0.00,CLR,,0.00,WeatherDisplay:10.37,2013-10-25 02:31:00,
2013-10-24 22:36:00,64.0,56.6,30.13,NNE,22,2.7,4.6,77,0.00,CLR,,0.00,WeatherDisplay:10.37,2013-10-25 02:36:00,
2013-10-24 22:41:00,64.0,56.6,30.13,NE,34,1.5,2.3,77,0.00,CLR,,0.00,WeatherDisplay:10.37,2013-10-25 02:41:00,
2013-10-24 22:46:00,63.9,56.9,30.14,NNE,13,1.1,2.3,78,0.00,CLR,,0.00,WeatherDisplay:10.37,2013-10-25 02:46:00,
2013-10-24 22:51:00,63.8,56.8,30.14,North,355,1.3,3.5,78,0.00,CLR,,0.00,WeatherDisplay:10.37,2013-10-25 02:51:00,
2013-10-24 22:56:00,63.6,57.0,30.14,NNE,19,1.9,4.6,79,0.00,CLR,,0.00,WeatherDisplay:10.37,2013-10-25 02:56:00,
2013-10-24 23:01:00,63.5,56.9,30.14,NE,37,1.4,3.5,79,0.00,CLR,,0.00,WeatherDisplay:10.37,2013-10-25 03:01:00,
2013-10-24 23:06:00,63.4,56.8,30.14,North,7,0.3,1.2,79,0.00,CLR,,0.00,WeatherDisplay:10.37,2013-10-25 03:06:00,
2013-10-24 23:11:00,63.2,56.9,30.14,North,360,2.0,3.5,80,0.00,CLR,,0.00,WeatherDisplay:10.37,2013-10-25 03:11:00,
2013-10-24 23:16:00,63.1,56.8,30.14,NNE,27,2.6,3.5,80,0.00,CLR,,0.00,WeatherDisplay:10.37,2013-10-25 03:16:00,
2013-10-24 23:21:00,63.1,56.8,30.14,NE,47,2.4,4.6,80,0.00,CLR,,0.00,WeatherDisplay:10.37,2013-10-25 03:21:00,
2013-10-24 23:26:00,63.1,56.8,30.15,NE,48,1.8,3.5,80,0.00,CLR,,0.00,WeatherDisplay:10.37,2013-10-25 03:26:00,
2013-10-24 23:31:00,63.1,56.8,30.15,North,350,1.9,3.5,80,0.00,CLR,,0.00,WeatherDisplay:10.37,2013-10-25 03:31:00,
2013-10-24 23:36:00,63.1,56.8,30.15,NNE,31,3.2,3.5,80,0.00,CLR,,0.00,WeatherDisplay:10.37,2013-10-25 03:36:00,
2013-10-24 23:41:00,63.2,56.9,30.15,NNE,32,1.8,2.3,80,0.00,CLR,,0.00,WeatherDisplay:10.37,2013-10-25 03:41:00,
2013-10-24 23:46:00,63.2,56.9,30.15,North,4,0.0,1.0,80,0.00,CLR,,0.00,WeatherDisplay:10.37,2013-10-25 03:46:00,
2013-10-24 23:51:00,63.1,56.8,30.15,NE,37,1.1,2.0,80,0.00,CLR,,0.00,WeatherDisplay:10.37,2013-10-25 03:51:00,
2013-10-24 23:56:00,63.1,56.8,30.15,NE,47,1.4,3.5,80,0.00,CLR,,0.00,WeatherDisplay:10.37,2013-10-25 03:56:00,